Temp
-16 -16 -16 -17 -16 -16 -16 -17 -17 -17 -17 -17 -17 -17 -17 -17 -16 -16 -16 -16 -16 -16 -16 -16 -16 -16 -16 -16 -16 -16 -16 -16 -16 -15 -15 -15 -15 -15 -15 -15 -15 -16
-16 -16 -17 -17 -17 -16 -16 -17 -17 -17 -17 -17 -17 -17 -17 -17 -17 -16 -16 -16 -16 -16 -16 -16 -16 -16 -16 -16 -16 -16 -16 -16 -16 -16 -16 -16 -16 -16 -16 -16 -16 -16
-16 -16 -17 -17 -17 -17 -17 -17 -17 -17 -17 -17 -17 -17 -17 -17 -17 -17 -16 -16 -16 -16 -16 -16 -16 -16 -16 -16 -16 -16 -16 -16 -16 -16 -16 -16 -16 -16 -16 -16 -16 -16
-16 -17 -17 -17 -17 -17 -17 -17 -17 -17 -17 -17 -17 -17 -17 -17 -17 -17 -17 -17 -17 -17 -17 -17 -17 -17 -17 -17 -17 -17 -16 -16 -16 -16 -16 -16 -16 -16 -16 -16 -16 -16
-17 -17 -17 -17 -17 -17 -17 -17 -17 -17 -17 -17 -17 -17 -17 -17 -17 -17 -17 -17 -17 -17 -17 -17 -17 -17 -17 -17 -17 -17 -17 -17 -17 -17 -17 -17 -17 -17 -17 -17 -17 -17
-17 -17 -17 -17 -17 -17 -17 -17 -17 -17 -17 -17 -17 -17 -17 -17 -17 -18 -18 -18 -18 -18 -17 -17 -17 -17 -17 -17 -17 -17 -17 -17 -17 -17 -17 -17 -17 -17 -17 -17 -17 -17
-17 -17 -17 -17 -17 -17 -17 -17 -17 -17 -17 -17 -17 -17 -18 -17 -17 -17 -18 -18 -18 -18 -18 -18 -18 -17 -17 -17 -17 -17 -17 -17 -17 -17 -17 -17 -17 -17 -17 -17 -17 -17
-17 -17 -17 -17 -17 -17 -18 -18 -18 -18 -17 -18 -18 -17 -17 -17 -17 -18 -18 -18 -18 -18 -18 -18 -18 -18 -18 -18 -18 -18 -17 -17 -17 -17 -17 -17 -17 -17 -17 -17 -17 -17
-17 -17 -17 -17 -18 -17 -17 -17 -17 -18 -18 -18 -18 -18 -17 -18 -18 -18 -18 -18 -18 -18 -18 -18 -18 -18 -18 -18 -18 -18 -18 -18 -17 -17 -17 -17 -17 -17 -17 -17 -17 -17
-17 -17 -17 -17 -17 -17 -17 -17 -17 -17 -18 -18 -18 -18 -18 -18 -18 -18 -18 -18 -18 -18 -18 -18 -18 -18 -18 -18 -18 -18 -18 -18 -18 -18 -18 -17 -17 -17 -17 -17 -17 -17
-17 -17 -17 -17 -17 -17 -17 -17 -17 -17 -18 -18 -18 -18 -18 -18 -18 -18 -18 -18 -18 -18 -18 -18 -18 -18 -18 -18 -18 -18 -18 -18 -18 -18 -18 -18 -18 -18 -18 -18 -18 -18
-18 -18 -18 -18 -18 -17 -17 -17 -18 -18 -18 -18 -18 -18 -18 -18 -18 -18 -18 -18 -18 -18 -18 -18 -18 -18 -18 -18 -18 -18 -18 -18 -18 -18 -18 -18 -18 -18 -18 -18 -18 -18
-18 -18 -18 -18 -18 -18 -18 -18 -18 -18 -18 -18 -18 -18 -18 -18 -18 -18 -18 -18 -18 -19 -18 -18 -18 -18 -18 -18 -19 -19 -19 -19 -19 -19 -18 -18 -18 -18 -18 -18 -18 -18
-18 -18 -18 -18 -18 -18 -18 -18 -18 -18 -18 -18 -18 -18 -18 -18 -18 -18 -19 -18 -18 -19 -19 -19 -19 -19 -19 -19 -19 -19 -19 -19 -19 -19 -19 -18 -18 -18 -18 -18 -18 -18
-18 -18 -18 -18 -18 -18 -18 -18 -18 -18 -18 -18 -18 -18 -18 -18 -18 -19 -19 -19 -19 -18 -19 -19 -19 -19 -19 -19 -19 -19 -19 -19 -19 -19 -19 -19 -18 -18 -18 -19 -19 -18
-18 -18 -19 -19 -19 -19 -18 -19 -19 -19 -18 -18 -19 -18 -18 -18 -19 -19 -19 -19 -19 -19 -19 -19 -19 -19 -19 -19 -19 -19 -19 -19 -19 -19 -19 -19 -19 -19 -19 -19 -19 -19
-19 -19 -19 -19 -19 -19 -19 -19 -19 -19 -19 -19 -19 -19 -18 -18 -18 -19 -19 -19 -19 -19 -19 -19 -19 -19 -19 -19 -19 -19 -19 -19 -19 -19 -19 -19 -19 -19 -19 -19 -19 -19
-19 -19 -19 -19 -19 -19 -19 -19 -19 -19 -19 -19 -19 -19 -19 -19 -19 -19 -19 -19 -19 -19 -19 -20 -20 -20 -20 -20 -20 -20 -20 -20 -20 -20 -20 -20 -20 -20 -20 -19 -19 -19
-19 -19 -19 -20 -20 -20 -19 -19 -19 -19 -19 -19 -19 -19 -19 -19 -20 -20 -20 -20 -20 -20 -20 -20 -20 -20 -20 -20 -20 -20 -20 -20 -20 -20 -20 -20 -20 -20 -20 -20 -20 -20
-20 -20 -20 -20 -20 -20 -20 -20 -20 -20 -20 -20 -20 -20 -20 -20 -20 -20 -20 -20 -20 -20 -20 -20 -20 -20 -20 -20 -20 -20 -20 -20 -20 -20 -20 -20 -20 -20 -20 -20 -20 -20
-21 -21 -21 -21 -21 -21 -21 -21 -21 -21 -21 -21 -21 -21 -21 -20 -20 -20 -20 -20 -20 -20 -20 -20 -20 -20 -20 -21 -21 -21 -21 -21 -21 -21 -21 -20 -20 -20 -20 -20 -20 -20
-21 -21 -21 -21 -21 -21 -21 -21 -21 -21 -21 -21 -21 -21 -21 -21 -21 -21 -21 -21 -21 -21 -21 -21 -21 -21 -21 -21 -21 -21 -21 -21 -21 -21 -21 -21 -21 -21 -21 -21 -21 -21
-21 -21 -21 -21 -21 -21 -21 -22 -22 -22 -21 -21 -21 -21 -21 -21 -21 -21 -21 -21 -21 -21 -21 -21 -21 -21 -21 -21 -21 -21 -21 -21 -21 -21 -21 -21 -21 -21 -21 -21 -21 -21
-21 -21 -21 -21 -21 -21 -22 -22 -22 -22 -22 -22 -22 -21 -21 -21 -21 -21 -21 -22 -22 -22 -22 -22 -22 -22 -22 -21 -21 -21 -21 -21 -21 -21 -21 -21 -21 -21 -21 -21 -21 -21
-22 -21 -21 -21 -22 -22 -22 -22 -22 -22 -22 -22 -22 -22 -22 -22 -22 -22 -22 -22 -22 -22 -22 -22 -22 -22 -22 -22 -22 -22 -22 -22 -22 -22 -22 -22 -21 -21 -21 -21 -21 -21
-22 -22 -22 -22 -22 -22 -22 -22 -22 -23 -22 -22 -22 -22 -22 -22 -22 -22 -22 -22 -23 -23 -23 -22 -22 -22 -22 -22 -22 -22 -22 -22 -22 -22 -22 -22 -22 -22 -21 -21 -21 -21
Height
5753 5754 5755 5754 5754 5754 5753 5753 5753 5753 5754 5754 5754 5755 5755 5755 5755 5755 5755 5755 5755 5755 5755 5755 5755 5755 5755 5755 5755 5755 5755 5756 5756 5756 5756 5756 5756 5756 5756 5756 5757 5757
5750 5751 5751 5751 5751 5751 5751 5751 5751 5751 5751 5752 5752 5753 5753 5754 5754 5754 5754 5754 5753 5753 5753 5753 5753 5753 5753 5753 5754 5754 5754 5754 5754 5755 5755 5755 5755 5755 5755 5755 5755 5755
5746 5747 5747 5748 5748 5748 5748 5748 5748 5748 5748 5750 5750 5751 5751 5752 5752 5753 5752 5752 5752 5752 5751 5751 5751 5751 5751 5752 5752 5752 5752 5753 5753 5753 5753 5753 5754 5754 5754 5754 5754 5754
5743 5744 5744 5744 5745 5745 5745 5746 5746 5745 5746 5747 5748 5749 5750 5750 5751 5751 5751 5751 5750 5750 5750 5750 5750 5750 5750 5750 5750 5751 5751 5751 5751 5752 5752 5752 5752 5752 5752 5752 5752 5752
5742 5742 5742 5743 5743 5743 5743 5743 5743 5743 5744 5745 5746 5747 5747 5748 5748 5749 5749 5749 5748 5748 5748 5748 5748 5747 5748 5748 5748 5749 5749 5749 5750 5750 5750 5750 5750 5750 5750 5750 5750 5750
5741 5742 5742 5742 5742 5741 5741 5742 5741 5741 5741 5742 5743 5744 5744 5745 5745 5746 5746 5746 5746 5746 5745 5745 5745 5745 5745 5745 5746 5747 5747 5748 5748 5748 5748 5748 5748 5748 5748 5748 5748 5748
5740 5740 5741 5741 5740 5740 5740 5740 5740 5739 5739 5740 5741 5741 5741 5742 5742 5743 5743 5743 5743 5743 5743 5743 5743 5743 5743 5743 5744 5744 5745 5746 5746 5746 5746 5747 5747 5747 5747 5747 5747 5747
5737 5737 5737 5738 5738 5738 5738 5738 5739 5739 5738 5738 5738 5739 5739 5740 5740 5741 5741 5741 5741 5741 5741 5742 5741 5741 5741 5741 5741 5742 5743 5743 5744 5744 5745 5745 5745 5745 5745 5745 5745 5745
5734 5734 5734 5734 5735 5735 5735 5734 5735 5736 5736 5736 5736 5737 5737 5738 5738 5738 5739 5738 5738 5738 5739 5739 5740 5740 5740 5740 5740 5740 5740 5741 5741 5742 5743 5743 5743 5743 5743 5743 5743 5743
5732 5732 5732 5732 5732 5732 5731 5731 5731 5731 5732 5733 5734 5735 5735 5735 5735 5736 5736 5736 5735 5735 5735 5736 5736 5737 5738 5738 5738 5738 5738 5739 5739 5739 5740 5741 5741 5741 5741 5741 5741 5741
5729 5730 5730 5729 5729 5729 5729 5728 5728 5728 5729 5730 5731 5732 5733 5733 5733 5733 5733 5733 5733 5733 5732 5732 5733 5733 5734 5734 5735 5735 5736 5736 5736 5737 5737 5738 5738 5738 5738 5738 5738 5738
5725 5726 5726 5726 5726 5726 5726 5725 5725 5725 5726 5727 5728 5729 5730 5731 5730 5730 5731 5730 5730 5730 5730 5730 5730 5730 5731 5731 5731 5732 5732 5732 5733 5733 5734 5736 5736 5736 5735 5735 5735 5735
5721 5721 5721 5722 5723 5723 5723 5722 5722 5723 5724 5724 5724 5726 5727 5727 5727 5727 5727 5727 5726 5726 5727 5727 5727 5728 5728 5728 5728 5728 5728 5729 5729 5730 5731 5732 5733 5733 5732 5731 5732 5732
5716 5716 5717 5718 5719 5720 5720 5720 5720 5721 5721 5721 5721 5722 5723 5723 5723 5723 5722 5723 5723 5723 5723 5724 5724 5725 5725 5725 5725 5724 5725 5725 5726 5726 5726 5727 5728 5728 5728 5728 5728 5728
5711 5712 5713 5714 5715 5716 5717 5717 5717 5718 5717 5717 5717 5718 5719 5718 5718 5718 5719 5719 5720 5720 5720 5720 5720 5721 5721 5721 5721 5721 5721 5722 5722 5722 5722 5722 5722 5723 5723 5723 5724 5724
5706 5707 5708 5709 5710 5711 5712 5713 5713 5713 5713 5712 5713 5714 5715 5714 5714 5714 5715 5716 5716 5716 5717 5716 5715 5716 5716 5717 5717 5717 5718 5718 5718 5718 5718 5718 5717 5717 5718 5718 5719 5720
5701 5702 5702 5703 5704 5706 5707 5707 5708 5708 5708 5708 5708 5709 5710 5710 5710 5710 5711 5711 5712 5712 5713 5712 5711 5712 5712 5712 5713 5713 5713 5713 5712 5712 5713 5712 5712 5712 5712 5712 5713 5714
5696 5696 5697 5697 5698 5699 5700 5701 5702 5702 5703 5703 5703 5704 5705 5706 5706 5706 5706 5707 5707 5707 5707 5707 5707 5708 5708 5708 5708 5708 5709 5708 5707 5707 5707 5707 5707 5707 5707 5707 5707 5708
5690 5690 5690 5691 5692 5693 5693 5694 5695 5695 5696 5697 5697 5698 5699 5700 5700 5701 5701 5701 5701 5701 5701 5701 5701 5702 5702 5703 5703 5703 5703 5703 5703 5703 5702 5702 5702 5702 5702 5702 5702 5702
5683 5683 5684 5684 5685 5686 5687 5688 5688 5689 5690 5691 5691 5692 5692 5693 5694 5694 5695 5695 5695 5695 5695 5695 5696 5696 5697 5697 5698 5698 5698 5698 5698 5698 5697 5697 5697 5697 5697 5697 5697 5697
5676 5677 5677 5678 5678 5679 5680 5681 5682 5683 5683 5684 5685 5686 5686 5687 5688 5689 5689 5689 5689 5689 5690 5691 5691 5691 5691 5691 5691 5691 5691 5691 5691 5692 5692 5692 5692 5692 5692 5692 5692 5691
5670 5670 5671 5671 5672 5673 5673 5674 5676 5677 5677 5678 5679 5680 5680 5681 5682 5683 5683 5684 5684 5684 5684 5685 5685 5685 5684 5684 5684 5684 5684 5685 5685 5685 5685 5686 5686 5686 5686 5686 5686 5685
5664 5664 5665 5666 5666 5666 5667 5667 5668 5669 5670 5671 5672 5673 5674 5675 5675 5676 5676 5676 5676 5676 5677 5677 5677 5677 5677 5677 5677 5678 5678 5678 5679 5679 5679 5679 5679 5679 5679 5679 5679 5679
5658 5659 5659 5660 5661 5660 5660 5660 5661 5662 5663 5664 5665 5666 5666 5667 5667 5667 5667 5667 5668 5668 5668 5669 5669 5669 5670 5670 5671 5671 5672 5672 5672 5673 5673 5673 5673 5672 5672 5672 5671 5671
5652 5652 5653 5654 5654 5654 5653 5653 5653 5654 5655 5656 5657 5658 5659 5659 5659 5659 5659 5660 5660 5661 5661 5662 5663 5663 5663 5664 5664 5665 5666 5666 5666 5666 5666 5666 5666 5665 5665 5665 5664 5664
5644 5645 5646 5647 5648 5647 5646 5646 5646 5646 5647 5649 5650 5651 5652 5652 5653 5653 5653 5653 5654 5655 5656 5656 5657 5657 5658 5658 5659 5659 5660 5660 5660 5660 5660 5659 5659 5658 5658 5657 5657 5657
Wind_Speed
21 21 20 18 18 20 22 20 18 17 16 15 15 15 15 16 16 15 14 14 14 14 14 14 14 14 14 14 15 15 15 15 16 16 17 17 17 17 17 16 16 15
19 21 21 20 20 21 22 19 16 17 17 15 14 14 14 15 15 15 15 14 14 14 14 14 14 14 14 15 15 15 15 15 15 15 15 16 16 16 16 15 15 15
17 20 21 21 22 21 20 17 16 20 20 16 14 14 14 14 15 15 15 15 15 14 14 14 14 14 15 15 15 16 16 16 16 16 16 15 15 15 15 14 14 14
14 15 14 15 16 16 16 15 17 22 20 15 14 14 14 15 15 16 15 15 15 15 15 15 15 15 15 15 15 16 16 17 17 17 17 16 16 16 15 15 14 14
12 11 11 11 12 12 13 14 16 19 18 16 16 15 15 15 14 14 15 15 15 15 15 15 15 14 14 14 15 15 16 16 16 16 16 16 16 16 15 15 15 14
10 10 11 11 10 11 12 12 14 17 18 18 17 17 17 16 13 13 13 14 14 14 15 15 15 14 13 13 13 14 14 14 14 13 13 13 13 13 14 14 14 14
9 10 10 10 11 12 12 12 14 17 19 19 17 17 17 16 14 13 14 14 14 14 14 14 14 14 13 13 12 12 13 12 12 12 11 11 11 12 13 14 14 14
10 11 12 12 13 14 15 16 16 18 20 20 18 16 16 16 17 17 17 16 16 14 13 13 13 13 13 12 12 12 12 13 13 12 12 11 11 11 12 13 14 15
11 13 14 15 15 14 15 17 17 18 21 21 19 18 17 18 20 20 20 19 18 16 14 13 13 14 14 14 14 13 14 14 15 14 14 13 13 13 13 13 13 14
13 14 16 17 16 15 15 16 17 18 20 21 20 19 19 20 21 21 20 19 19 18 17 17 18 18 19 19 19 18 17 17 17 17 16 16 16 16 16 16 16 16
16 16 16 17 17 16 17 18 19 19 19 20 20 20 19 19 20 20 20 20 20 20 21 22 23 24 23 23 23 22 20 20 20 20 19 19 19 19 19 19 19 19
20 21 20 19 18 17 17 19 21 22 20 17 17 18 17 18 20 20 21 22 22 22 23 22 22 22 23 23 21 19 18 19 20 20 19 19 18 19 21 21 19 19
26 27 25 22 19 17 16 16 17 20 20 16 16 18 20 23 24 22 21 21 22 23 23 21 20 20 21 21 20 18 17 19 20 20 20 20 19 21 23 24 22 22
29 29 27 24 22 20 18 17 16 17 19 20 23 25 26 26 25 23 22 23 24 25 24 24 24 25 25 24 24 23 23 23 24 24 24 24 24 25 27 27 27 26
31 31 29 28 26 24 22 22 22 23 25 28 29 27 27 26 24 23 24 25 25 26 27 28 29 30 30 30 30 30 29 28 29 29 29 29 29 29 30 30 28 28
35 35 34 32 30 29 28 28 28 28 30 32 31 28 27 26 25 25 27 27 27 27 27 29 31 31 31 32 32 32 31 31 32 32 32 32 32 31 32 31 29 28
38 38 38 36 35 34 34 33 33 33 31 31 31 29 28 28 29 30 31 31 31 31 30 32 33 32 32 33 33 34 35 35 33 32 31 31 31 32 32 33 32 32
42 42 41 40 39 39 37 37 37 37 35 34 34 33 32 32 33 35 34 34 34 34 33 33 34 34 35 36 37 37 36 33 32 31 31 31 32 32 33 33 34 35
45 44 43 42 41 41 40 39 39 39 38 38 38 36 35 35 35 36 36 36 35 34 34 34 34 35 36 36 36 35 33 32 32 32 33 33 33 34 34 35 36 37
46 45 45 44 43 43 42 41 39 38 38 38 38 38 37 37 37 37 37 36 34 34 34 35 36 36 36 36 36 35 35 35 35 35 34 35 35 36 36 37 38 39
45 44 43 43 43 43 42 40 39 38 39 39 39 39 39 39 38 37 37 36 36 37 37 38 38 39 39 38 38 38 38 37 37 37 37 37 37 38 39 39 40 40
39 40 40 39 39 39 39 40 40 40 40 40 40 40 41 40 39 39 39 39 40 41 42 41 41 41 41 41 40 40 40 39 39 39 39 40 41 42 43 42 42 41
37 37 37 38 38 38 40 40 41 41 41 42 43 43 43 43 42 42 43 43 43 44 44 43 43 42 42 42 42 41 41 41 41 41 43 44 46 46 46 45 44 43
42 41 40 40 40 41 43 44 45 46 46 46 46 46 45 44 44 45 45 45 45 44 44 43 42 42 42 42 42 42 42 42 44 45 47 48 48 48 48 47 47 46
42 42 42 41 41 43 44 45 46 47 47 47 46 45 44 43 43 44 44 45 45 44 44 43 43 42 42 42 43 43 43 45 47 48 49 49 48 48 47 48 48 48
45 45 43 42 43 44 44 44 45 46 47 46 44 43 42 42 43 43 44 44 44 43 43 44 44 44 44 44 45 45 46 47 48 48 48 48 48 48 48 48 48 48
Wind_Direction
262 261 269 271 268 273 279 281 281 278 280 281 280 286 293 289 277 267 264 262 261 260 258 256 254 253 254 255 257 260 261 262 262 263 263 264 265 265 266 268 269 270
265 260 262 267 269 273 275 275 274 275 280 281 278 284 292 291 281 272 266 262 261 260 259 257 256 256 257 258 260 261 263 264 265 266 267 268 269 269 269 270 269 269
266 258 260 266 269 268 266 263 261 265 273 277 276 283 291 290 284 277 271 266 264 263 262 261 260 259 260 260 262 263 264 266 267 268 269 269 270 271 272 272 271 270
268 259 263 272 271 263 257 255 256 258 265 270 271 278 287 287 284 281 278 275 271 268 264 262 261 262 263 264 265 266 266 267 268 270 272 273 274 274 274 274 274 274
267 260 269 280 274 262 255 255 256 256 261 269 273 278 280 279 278 280 282 281 275 268 263 260 259 259 262 266 267 267 266 266 268 269 272 275 277 278 280 281 281 281
278 275 281 283 277 270 262 256 255 256 262 269 274 279 276 270 269 274 280 278 270 264 261 258 257 255 256 260 263 265 266 266 265 267 269 274 278 282 284 286 288 289
285 281 279 276 274 276 274 267 261 260 264 268 274 279 275 266 260 270 284 281 269 262 260 258 256 254 252 253 257 260 262 261 262 264 267 272 277 283 286 288 291 292
273 272 273 272 275 278 279 276 268 262 260 264 270 275 272 262 261 274 286 283 274 271 267 263 260 255 251 249 250 253 253 255 259 263 265 268 272 278 283 287 291 292
274 276 277 276 279 281 279 273 266 259 254 257 265 271 271 267 269 277 280 274 271 272 270 267 266 265 261 256 254 253 252 255 260 264 266 268 272 277 279 281 284 288
276 278 278 279 281 283 280 271 263 257 251 253 261 267 270 272 273 276 276 271 268 269 270 270 269 267 266 266 265 262 259 260 263 264 265 268 273 276 276 277 279 280
278 280 280 280 279 279 278 270 260 254 253 257 261 260 263 273 274 274 278 278 273 272 275 275 273 269 267 267 268 266 264 265 265 264 264 267 272 274 272 273 276 277
286 288 288 286 282 278 276 270 259 252 256 261 259 254 259 272 276 277 281 280 274 273 275 275 273 271 268 265 264 264 267 268 266 266 265 266 271 276 275 273 273 275
289 291 291 291 288 281 276 274 260 247 246 250 256 264 271 275 277 276 275 273 271 271 271 269 267 266 264 260 258 260 269 273 272 269 267 266 265 267 272 274 273 273
286 287 287 287 286 280 270 267 259 245 243 253 266 275 278 278 276 272 269 269 267 264 263 264 266 267 264 258 256 263 272 276 275 272 270 269 266 264 267 271 273 274
282 282 281 282 284 281 271 263 258 256 258 263 267 271 276 276 271 266 269 272 268 264 264 267 268 268 266 260 260 267 274 275 272 270 268 268 267 266 267 270 272 275
280 279 279 278 278 278 274 268 265 266 269 269 267 268 271 269 260 260 268 272 270 266 266 268 269 270 268 264 263 267 274 278 274 269 266 266 267 267 268 269 270 270
277 276 276 276 274 273 272 269 269 270 270 268 267 267 266 261 257 262 268 269 267 265 264 266 270 272 270 268 268 271 277 280 277 272 271 271 271 271 271 271 270 267
273 272 272 272 272 271 268 267 268 268 267 265 265 265 263 260 261 266 268 266 264 263 263 266 269 270 269 270 272 275 276 275 275 276 278 278 278 277 277 276 275 273
270 270 270 270 269 268 267 266 266 266 265 264 265 265 265 266 266 266 266 265 264 263 265 269 271 272 271 271 271 271 270 270 273 277 279 279 280 280 280 280 279 278
267 268 269 269 268 267 267 266 264 263 264 264 266 267 268 269 269 268 266 264 265 267 269 271 272 271 270 268 267 267 268 271 274 276 277 278 279 280 281 282 281 279
266 267 267 267 267 267 266 265 263 264 266 267 267 268 268 268 268 268 266 263 263 266 268 269 270 269 268 268 269 270 271 274 276 277 278 279 280 282 284 284 282 279
268 268 266 266 266 267 267 265 264 265 267 267 267 267 268 268 267 266 264 263 263 265 268 270 271 270 269 269 271 272 273 275 278 280 282 282 283 285 286 285 283 280
264 265 264 264 265 266 268 267 266 266 266 266 267 267 268 268 268 268 267 267 268 269 270 271 271 270 270 271 273 274 274 276 279 282 284 285 286 287 287 286 284 281
262 264 266 267 266 266 266 266 266 267 267 267 268 269 270 271 271 272 272 272 272 272 272 271 270 270 271 272 274 275 276 277 280 283 285 286 286 286 285 284 284 283
264 264 266 268 267 266 266 266 266 266 267 267 268 268 269 270 271 272 272 272 271 270 270 269 269 269 270 271 273 274 276 278 282 284 285 285 284 283 282 282 282 281
260 259 260 262 262 263 264 264 264 264 264 264 265 266 267 269 271 271 270 269 268 267 266 266 267 267 268 270 272 274 276 279 282 284 284 283 282 281 280 280 280 280